Satellite: STUDSAT
Catalog number: 36801
Epoch time:      10216.73697962
Element set:    0059
Inclination:      098.1461 deg
RA of node:       276.2007 deg
Eccentricity:    0.0013194
Arg of perigee:   202.8181 deg
Mean anomaly:     157.2444 deg
Mean motion:   14.79564456 rev/day
Decay rate:       8.84e-06 rev/day^2
Epoch rev:           00349
Checksum:              307

/EX
SB KEPS @ AMSAT  $ORB10217.W
Orbital Elements  10217.WEATHER

HR AMSAT ORBITAL ELEMENTS FOR WEATHER SATELLITES
FROM WA5QGD FORT WORTH,TX August 5, 2010
Send Subscribe/unsubscribe to KEPS at http://www.amsat.org/mailman/listinfo/keps
BID: ORB10217.W
TO ALL RADIO AMATEURS BT

Satellite: NOAA-10
Catalog number: 16969
Epoch time:      10216.72972452
Element set:    0158
Inclination:      098.6543 deg
RA of node:       245.2363 deg
Eccentricity:    0.0013181
Arg of perigee:   070.6544 deg
Mean anomaly:     289.6043 deg
Mean motion:   14.27422570 rev/day
Decay rate:       -3.3e-07 rev/day^2
Epoch rev:           24250
Checksum:              291

Satellite: NOAA-11
Catalog number: 19531
Epoch time:      10216.82113331
Element set:    0170
Inclination:      098.7688 deg
RA of node:       305.0184 deg
Eccentricity:    0.0011933
Arg of perigee:   013.5208 deg
Mean anomaly:     346.6291 deg
Mean motion:   14.14930572 rev/day
Decay rate:      -2.23e-06 rev/day^2
Epoch rev:           12801
Checksum:              261

Satellite: NOAA-12
Catalog number: 21263
Epoch time:      10216.70750616
Element set:    0659
Inclination:      098.7653 deg
RA of node:       229.8615 deg
Eccentricity:    0.0012948
Arg of perigee:   029.7367 deg
Mean anomaly:     330.4548 deg
Mean motion:   14.25646952 rev/day
Decay rate:        9.5e-07 rev/day^2
Epoch rev:           99931
Checksum:              335

Satellite: MET-3/5
Catalog number: 21655
Epoch time:      10217.78784836
Element set:     880
Inclination:      082.5566 deg
RA of node:       273.5933 deg
Eccentricity:    0.0012503
Arg of perigee:   220.6249 deg
Mean anomaly:     139.3903 deg
Mean motion:   13.17025058 rev/day
Decay rate:        5.1e-07 rev/day^2
Epoch rev:           91220
Checksum:              296

Satellite: MET-2/21
Catalog number: 22782
Epoch time:      10216.52462894
Element set:    0848
Inclination:      082.5451 deg
RA of node:       214.0890 deg
Eccentricity:    0.0020717
Arg of perigee:   267.2173 deg
Mean anomaly:     092.6617 deg
Mean motion:   13.83645350 rev/day
Decay rate:       -2.7e-07 rev/day^2
Epoch rev:           85476
Checksum:              310

Satellite: OKEAN-4
Catalog number: 23317
Epoch time:      10216.70493698
Element set:    0304
Inclination:      082.5423 deg
RA of node:       308.5750 deg
Eccentricity:    0.0024023
Arg of perigee:   082.7054 deg
Mean anomaly:     277.6904 deg
Mean motion:   14.82843405 rev/day
Decay rate:       3.39e-06 rev/day^2
Epoch rev:           85364
Checksum:              297

Satellite: NOAA-14
Catalog number: 23455
Epoch time:      10216.69119177
Element set:    0150
Inclination:      098.8770 deg
RA of node:       297.0941 deg
Eccentricity:    0.0010301
Arg of perigee:   096.9595 deg
Mean anomaly:     263.2763 deg
Mean motion:   14.13790628 rev/day
Decay rate:       -2.0e-07 rev/day^2
Epoch rev:           80435
Checksum:              304

Satellite: NOAA-15
Catalog number: 25338
Epoch time:      10216.88880024
Element set:    0474
Inclination:      098.6223 deg
RA of node:       202.9477 deg
Eccentricity:    0.0009720
Arg of perigee:   295.9037 deg
Mean anomaly:     064.1143 deg
Mean motion:   14.24845350 rev/day
Decay rate:        1.8e-07 rev/day^2
Epoch rev:           63568
Checksum:              307

Satellite: RESURS
Catalog number: 25394
Epoch time:      10217.80723580
Element set:     570
Inclination:      098.3041 deg
RA of node:       233.1850 deg
Eccentricity:    0.0002579
Arg of perigee:   075.3273 deg
Mean anomaly:     284.8193 deg
Mean motion:   14.24206914 rev/day
Decay rate:       -2.1e-07 rev/day^2
Epoch rev:           62741
Checksum:              278

Satellite: FENGYUN1
Catalog number: 25730
Epoch time:      10216.76304999
Element set:    0105
Inclination:      098.7865 deg
RA of node:       180.4543 deg
Eccentricity:    0.0022887
Arg of perigee:   125.7046 deg
Mean anomaly:     234.6255 deg
Mean motion:   14.08229772 rev/day
Decay rate:       5.89e-06 rev/day^2
Epoch rev:           57852
Checksum:              328

Satellite: OKEAN-0
Catalog number: 25860
Epoch time:      10217.77942968
Element set:      64
Inclination:      097.8364 deg
RA of node:       188.8033 deg
Eccentricity:    0.0000749
Arg of perigee:   052.0657 deg
Mean anomaly:     308.0615 deg
Mean motion:   14.73652662 rev/day
Decay rate:        4.9e-07 rev/day^2
Epoch rev:           59420
Checksum:              316

Satellite: NOAA-16
Catalog number: 26536
Epoch time:      10216.88804197
Element set:    0951
Inclination:      099.1691 deg
RA of node:       235.5022 deg
Eccentricity:    0.0010316
Arg of perigee:   196.3854 deg
Mean anomaly:     163.6972 deg
Mean motion:   14.12571681 rev/day
Decay rate:       2.44e-06 rev/day^2
Epoch rev:           50870
Checksum:              310

Satellite: NOAA-17
Catalog number: 27453
Epoch time:      10216.89453720
Element set:    0947
Inclination:      098.4269 deg
RA of node:       265.3684 deg
Eccentricity:    0.0011711
Arg of perigee:   000.4182 deg
Mean anomaly:     359.7010 deg
Mean motion:   14.24178084 rev/day
Decay rate:        1.2e-07 rev/day^2
Epoch rev:           42163
Checksum:              289

Satellite: NOAA-18
Catalog number: 28654
Epoch time:      10216.93247241
Element set:    0432
Inclination:      098.9512 deg
RA of node:       163.0615 deg
Eccentricity:    0.0013401
Arg of perigee:   277.7821 deg
Mean anomaly:     082.1838 deg
Mean motion:   14.11375306 rev/day
Decay rate:      -1.36e-06 rev/day^2
Epoch rev:           26831
Checksum:              286

Satellite: NOAA-19
Catalog number: 33591
Epoch time:      10216.93116871
Element set:    0630
Inclination:      098.7890 deg
RA of node:       158.0202 deg
Eccentricity:    0.0014440
Arg of perigee:   147.3570 deg
Mean anomaly:     212.8489 deg
Mean motion:   14.11071569 rev/day
Decay rate:      -1.61e-06 rev/day^2
Epoch rev:           07678
Checksum:              301

/EX
SB KEPS @ AMSAT  $ORB10217.M
Orbital Elements  10217.MISC

HR AMSAT ORBITAL ELEMENTS FOR MANNED AND MISCELLANEOUS SATELLITES
FROM WA5QGD FORT WORTH,TX August 5, 2010
Send Subscribe/unsubscribe to KEPS at http://www.amsat.org/mailman/listinfo/keps
BID: ORB10217.M
TO ALL RADIO AMATEURS BT

Satellite: HUBBLE
Catalog number: 20580
Epoch time:      10216.58644794
Element set:     621
Inclination:      028.4695 deg
RA of node:       283.8869 deg
Eccentricity:    0.0003357
Arg of perigee:   000.6659 deg
Mean anomaly:     359.3930 deg
Mean motion:   15.01008823 rev/day
Decay rate:       4.88e-06 rev/day^2
Epoch rev:           91203
Checksum:              307

Satellite: ISS
Catalog number: 25544
Epoch time:      10217.91454058
Element set:     653
Inclination:      051.6468 deg
RA of node:       336.1249 deg
Eccentricity:    0.0006933
Arg of perigee:   185.3953 deg
Mean anomaly:     273.8915 deg
Mean motion:   15.71523797 rev/day
Decay rate:     1.5425e-04 rev/day^2
Epoch rev:           67129
Checksum:              325

Satellite: CO-58
Catalog number: 28895
Epoch time:      10216.64370311
Element set:    0648
Inclination:      098.0085 deg
RA of node:       099.5002 deg
Eccentricity:    0.0019039
Arg of perigee:   131.1914 deg
Mean anomaly:     229.0957 deg
Mean motion:   14.59916950 rev/day
Decay rate:       3.25e-06 rev/day^2
Epoch rev:           25405
Checksum:              314

Satellite: FALCON
Catalog number: 30776
Epoch time:      10216.88311953
Element set:    0896
Inclination:      035.4326 deg
RA of node:       108.6325 deg
Eccentricity:    0.0001611
Arg of perigee:   277.8894 deg
Mean anomaly:     082.1645 deg
Mean motion:   15.03742635 rev/day
Decay rate:       7.90e-06 rev/day^2
Epoch rev:           18739
Checksum:              311

Satellite: MAST
Catalog number: 31126
Epoch time:      10217.64609851
Element set:     930
Inclination:      097.9337 deg
RA of node:       257.0929 deg
Eccentricity:    0.0095848
Arg of perigee:   072.5485 deg
Mean anomaly:     288.6152 deg
Mean motion:   14.53607510 rev/day
Decay rate:        9.8e-07 rev/day^2
Epoch rev:           17524
Checksum:              322

Satellite: CAPE1
Catalog number: 31130
Epoch time:      10216.78094540
Element set:    0951
Inclination:      097.9357 deg
RA of node:       253.5856 deg
Eccentricity:    0.0104568
Arg of perigee:   083.8659 deg
Mean anomaly:     277.4404 deg
Mean motion:   14.52204418 rev/day
Decay rate:        3.8e-07 rev/day^2
Epoch rev:           17471
Checksum:              308

Satellite: COMPASS
Catalog number: 32787
Epoch time:      10216.17677516
Element set:    0742
Inclination:      097.8909 deg
RA of node:       280.2676 deg
Eccentricity:    0.0016687
Arg of perigee:   126.6295 deg
Mean anomaly:     233.6441 deg
Mean motion:   14.81923144 rev/day
Decay rate:        5.0e-07 rev/day^2
Epoch rev:           12260
Checksum:              308

Satellite: AAUSAT2
Catalog number: 32788
Epoch time:      10217.66047847
Element set:     734
Inclination:      097.8910 deg
RA of node:       281.8691 deg
Eccentricity:    0.0016528
Arg of perigee:   123.0980 deg
Mean anomaly:     237.1815 deg
Mean motion:   14.82069997 rev/day
Decay rate:       1.56e-06 rev/day^2
Epoch rev:           12283
Checksum:              330

